TimeEDT,TemperatureF,Dew PointF,Humidity,Sea Level PressureIn,VisibilityMPH,Wind Direction,Wind SpeedMPH,Gust SpeedMPH,PrecipitationIn,Events,Conditions,WindDirDegrees,DateUTC
12:05 AM,30.0,24.1,79,30.02,10.0,Calm,Calm,-,N/A,,Overcast,0,2014-03-21 04:05:00
12:54 AM,28.9,23.0,78,30.06,10.0,West,3.5,-,N/A,,Mostly Cloudy,280,2014-03-21 04:54:00
1:12 AM,27.0,21.9,81,30.03,10.0,West,4.6,-,N/A,,Partly Cloudy,260,2014-03-21 05:12:00
1:54 AM,27.0,21.9,81,30.06,10.0,Calm,Calm,-,N/A,,Clear,0,2014-03-21 05:54:00
2:54 AM,28.0,21.9,78,30.06,10.0,Calm,Calm,-,N/A,,Clear,0,2014-03-21 06:54:00
3:54 AM,26.1,21.0,81,30.06,10.0,Calm,Calm,-,N/A,,Clear,0,2014-03-21 07:54:00
4:54 AM,25.0,19.9,81,30.07,10.0,SSW,3.5,-,N/A,,Clear,200,2014-03-21 08:54:00
5:54 AM,23.0,19.0,85,30.07,9.0,Calm,Calm,-,N/A,,Clear,0,2014-03-21 09:54:00
6:54 AM,21.9,19.0,89,30.08,8.0,Calm,Calm,-,N/A,,Clear,0,2014-03-21 10:54:00
7:54 AM,23.0,19.9,88,30.08,5.0,Calm,Calm,-,N/A,,Partly Cloudy,0,2014-03-21 11:54:00
8:54 AM,28.9,24.1,82,30.08,6.0,Calm,Calm,-,N/A,,Haze,0,2014-03-21 12:54:00
9:41 AM,30.0,25.0,82,30.07,2.5,Calm,Calm,-,0.00,Snow,Light Snow,0,2014-03-21 13:41:00
9:48 AM,28.4,24.8,86,30.08,0.8,SSW,3.5,-,0.00,Snow,Light Snow,210,2014-03-21 13:48:00
9:49 AM,28.9,25.0,85,30.11,0.8,SW,3.5,-,0.00,Snow,Light Snow,220,2014-03-21 13:49:00
9:58 AM,28.9,25.0,85,30.08,0.2,SW,3.5,-,0.00,Fog-Snow,Heavy Snow,220,2014-03-21 13:58:00
10:15 AM,28.9,26.1,89,30.10,0.5,West,4.6,-,0.01,Fog-Snow,Snow,260,2014-03-21 14:15:00
10:23 AM,28.0,27.0,96,30.09,0.2,Calm,Calm,-,0.02,Fog-Snow,Heavy Snow,0,2014-03-21 14:23:00
10:41 AM,28.0,27.0,96,30.09,0.8,SSW,3.5,-,0.02,Snow,Light Snow,200,2014-03-21 14:41:00
10:54 AM,28.9,26.1,89,30.13,0.8,SSW,4.6,-,0.02,Snow,Light Snow,200,2014-03-21 14:54:00
11:04 AM,28.9,27.0,92,30.09,1.0,South,3.5,-,0.00,Snow,Light Snow,190,2014-03-21 15:04:00
11:11 AM,28.9,27.0,92,30.09,2.0,South,4.6,-,0.00,Snow,Light Snow,190,2014-03-21 15:11:00
11:22 AM,28.9,26.1,89,30.09,4.0,South,6.9,-,0.00,,Overcast,190,2014-03-21 15:22:00
11:54 AM,30.0,28.0,92,30.12,6.0,SSW,5.8,-,0.00,,Overcast,200,2014-03-21 15:54:00
12:13 PM,30.9,28.0,89,30.07,7.0,South,3.5,-,N/A,,Overcast,170,2014-03-21 16:13:00
12:54 PM,32.0,27.0,82,30.10,8.0,South,3.5,-,N/A,,Overcast,170,2014-03-21 16:54:00
1:08 PM,33.1,27.0,78,30.06,8.0,ESE,3.5,-,N/A,,Overcast,120,2014-03-21 17:08:00
1:54 PM,34.0,28.0,79,30.08,7.0,ESE,5.8,-,N/A,,Overcast,120,2014-03-21 17:54:00
2:54 PM,37.0,30.9,79,30.04,8.0,East,8.1,-,N/A,,Mostly Cloudy,100,2014-03-21 18:54:00
3:54 PM,41.0,32.0,70,30.02,10.0,East,6.9,-,N/A,,Clear,100,2014-03-21 19:54:00
4:54 PM,44.1,33.1,65,29.99,10.0,SSE,5.8,-,N/A,,Clear,160,2014-03-21 20:54:00
5:54 PM,46.0,34.0,63,29.96,10.0,ESE,8.1,-,N/A,,Clear,110,2014-03-21 21:54:00
6:54 PM,46.0,34.0,63,29.94,10.0,East,5.8,-,N/A,,Clear,100,2014-03-21 22:54:00
7:54 PM,43.0,34.0,71,29.92,10.0,East,4.6,-,N/A,,Clear,90,2014-03-21 23:54:00
8:54 PM,42.1,34.0,73,29.89,10.0,Variable,3.5,-,N/A,,Clear,0,2014-03-22 00:54:00
9:54 PM,42.1,33.1,70,29.87,10.0,SSE,8.1,-,N/A,,Clear,150,2014-03-22 01:54:00
10:54 PM,42.1,34.0,73,29.85,10.0,SSE,9.2,-,N/A,,Clear,150,2014-03-22 02:54:00
11:54 PM,42.1,34.0,73,29.81,10.0,South,8.1,-,N/A,,Clear,170,2014-03-22 03:54:00